Tracking 30743 objects as of 22-Jun-2025
HD Live streaming from Space Station
objects crossing your sky now

USA 340

Track USA 340 now!


NORAD ID: 55138
Int'l Code: 2022-144E
Perigee: 35,211.3 km
Apogee: 36,574.5 km
Inclination: 4.5 °
Period: 1,441.2 minutes
Semi major axis: 42263 km
RCS: Unknown
Launch date: November 1, 2022
Source: United States (US)
Launch site: AIR FORCE EASTERN TEST RANGE (AFETR)
Your satellite tracking list
Your tracking list is empty




NASA's NSSDC Master Catalog

Two Line Element Set (TLE):
1 55138U 22144E   25163.08611111 -.00000216  00000-0  00000-0 0  9991
2 55138   4.4734  66.2414 0161279 302.5041 261.4999  0.99919047  1470
Source of the keplerian elements: AFSPC